N323N EGNH-EGBB

Flight info

Callsign N323N
Flight time 0h 34m
Altitude 13000
Route WAL WAL1B
Aircraft B60T/L-SDFGR/L

Departure

Time 2026-04-20 11:27
Airport Blackpool Airport (EGNH)

Arrival

Time 2026-04-20 12:01
Airport Birmingham Airport (EGBB)
Time Latitude Longitude Altitude Speed Heading
2026-04-20 11:02 53.77575 -3.04379 44 ft 0 kts 355°
2026-04-20 11:21 53.77577 -3.04379 44 ft 1 kts 355°
2026-04-20 11:21 53.77586 -3.04381 44 ft 3 kts 355°
2026-04-20 11:21 53.77600 -3.04305 44 ft 10 kts 83°
2026-04-20 11:21 53.77594 -3.04231 44 ft 7 kts 158°
2026-04-20 11:22 53.77550 -3.04263 44 ft 7 kts 213°
2026-04-20 11:22 53.77511 -3.04305 44 ft 6 kts 212°
2026-04-20 11:22 53.77461 -3.04360 44 ft 12 kts 212°
2026-04-20 11:22 53.77374 -3.04402 44 ft 11 kts 180°
2026-04-20 11:23 53.77312 -3.04388 44 ft 8 kts 164°
2026-04-20 11:23 53.77258 -3.04356 44 ft 8 kts 154°
2026-04-20 11:23 53.77220 -3.04290 42 ft 10 kts 95°
2026-04-20 11:23 53.77215 -3.04178 42 ft 9 kts 92°
2026-04-20 11:24 53.77213 -3.04079 44 ft 9 kts 92°
2026-04-20 11:24 53.77207 -3.03936 45 ft 16 kts 94°
2026-04-20 11:24 53.77166 -3.03750 45 ft 20 kts 128°
2026-04-20 11:24 53.77082 -3.03560 45 ft 16 kts 127°
2026-04-20 11:25 53.77025 -3.03436 44 ft 13 kts 128°
2026-04-20 11:25 53.76964 -3.03302 44 ft 15 kts 127°
2026-04-20 11:25 53.76921 -3.03205 43 ft 6 kts 126°
2026-04-20 11:25 53.76902 -3.03182 43 ft 3 kts 82°
2026-04-20 11:26 53.76913 -3.03179 43 ft 0 kts 307°
2026-04-20 11:26 53.76917 -3.03187 43 ft 12 kts 307°
2026-04-20 11:27 53.77144 -3.03692 56 ft 91 kts 307°
2026-04-20 11:27 53.77585 -3.04662 466 ft 115 kts 307°
2026-04-20 11:27 53.77935 -3.06013 865 ft 141 kts 269°
2026-04-20 11:27 53.77554 -3.07558 1446 ft 151 kts 221°
2026-04-20 11:28 53.76577 -3.08090 2120 ft 152 kts 177°
2026-04-20 11:28 53.75517 -3.08004 2831 ft 155 kts 175°
2026-04-20 11:28 53.74426 -3.07789 3361 ft 163 kts 169°
2026-04-20 11:28 53.73344 -3.07341 4109 ft 156 kts 162°
2026-04-20 11:29 53.72309 -3.06691 4712 ft 163 kts 156°
2026-04-20 11:29 53.71241 -3.05945 5298 ft 164 kts 158°
2026-04-20 11:29 53.70106 -3.05531 5816 ft 174 kts 176°
2026-04-20 11:29 53.68886 -3.05570 6384 ft 172 kts 178°
2026-04-20 11:30 53.67699 -3.05557 6993 ft 173 kts 175°
2026-04-20 11:30 53.66457 -3.05548 7417 ft 180 kts 181°
2026-04-20 11:30 53.65238 -3.05834 8016 ft 179 kts 190°
2026-04-20 11:30 53.64019 -3.06232 8615 ft 178 kts 190°
2026-04-20 11:31 53.62810 -3.06585 9267 ft 176 kts 190°
2026-04-20 11:31 53.62013 -3.06800 9700 ft 175 kts 190°
2026-04-20 11:31 53.60766 -3.07122 10135 ft 186 kts 190°
2026-04-20 11:31 53.59451 -3.07442 10601 ft 194 kts 190°
2026-04-20 11:32 53.58103 -3.07768 11129 ft 197 kts 190°
2026-04-20 11:32 53.56727 -3.08102 11655 ft 198 kts 190°
2026-04-20 11:32 53.54920 -3.08529 12322 ft 199 kts 190°
2026-04-20 11:32 53.53992 -3.08751 12648 ft 201 kts 190°
2026-04-20 11:33 53.52587 -3.09091 13051 ft 206 kts 191°
2026-04-20 11:33 53.51123 -3.09538 13197 ft 221 kts 193°
2026-04-20 11:33 53.49600 -3.10032 13294 ft 231 kts 193°
2026-04-20 11:33 53.49186 -3.10167 13301 ft 234 kts 193°
2026-04-20 11:36 53.48353 -3.10447 13299 ft 238 kts 194°
2026-04-20 11:37 53.46714 -3.11057 13301 ft 243 kts 195°
2026-04-20 11:37 53.43386 -3.12340 13304 ft 248 kts 195°
2026-04-20 11:37 53.41700 -3.12993 13304 ft 249 kts 195°
2026-04-20 11:38 53.39997 -3.13616 13301 ft 251 kts 189°
2026-04-20 11:38 53.38256 -3.13506 13295 ft 252 kts 164°
2026-04-20 11:38 53.36685 -3.12336 13291 ft 243 kts 152°
2026-04-20 11:38 53.35387 -3.10648 13289 ft 240 kts 128°
2026-04-20 11:39 53.34427 -3.08362 13287 ft 240 kts 122°
2026-04-20 11:39 53.33533 -3.06015 13295 ft 239 kts 121°
2026-04-20 11:39 53.32643 -3.03660 13295 ft 239 kts 124°
2026-04-20 11:39 53.31475 -3.01699 13295 ft 239 kts 142°
2026-04-20 11:40 53.30139 -3.00033 13300 ft 239 kts 144°
2026-04-20 11:40 53.28821 -2.98334 13301 ft 239 kts 140°
2026-04-20 11:40 53.27573 -2.96501 13302 ft 239 kts 137°
2026-04-20 11:40 53.26333 -2.94647 13302 ft 239 kts 138°
2026-04-20 11:41 53.25080 -2.92820 13299 ft 240 kts 139°
2026-04-20 11:41 53.23835 -2.91016 13300 ft 240 kts 139°
2026-04-20 11:41 53.22569 -2.89176 13300 ft 240 kts 139°
2026-04-20 11:41 53.21311 -2.87348 13297 ft 240 kts 139°
2026-04-20 11:42 53.20049 -2.85516 13297 ft 240 kts 139°
2026-04-20 11:42 53.18790 -2.83689 13297 ft 240 kts 139°
2026-04-20 11:42 53.17528 -2.81862 13298 ft 240 kts 139°
2026-04-20 11:42 53.16266 -2.80033 13300 ft 240 kts 139°
2026-04-20 11:43 53.15004 -2.78209 13295 ft 240 kts 139°
2026-04-20 11:43 53.13759 -2.76407 13295 ft 240 kts 139°
2026-04-20 11:43 53.12495 -2.74582 13294 ft 240 kts 139°
2026-04-20 11:43 53.11233 -2.72759 13292 ft 240 kts 139°
2026-04-20 11:44 53.09966 -2.70932 13296 ft 240 kts 139°
2026-04-20 11:44 53.08700 -2.69108 13296 ft 240 kts 139°
2026-04-20 11:44 53.07437 -2.67289 13296 ft 240 kts 139°
2026-04-20 11:44 53.06189 -2.65494 13296 ft 240 kts 139°
2026-04-20 11:45 53.04922 -2.63673 13300 ft 240 kts 139°
2026-04-20 11:45 53.03656 -2.61854 13300 ft 240 kts 139°
2026-04-20 11:45 53.02392 -2.60040 13298 ft 240 kts 139°
2026-04-20 11:45 53.01127 -2.58225 13297 ft 240 kts 139°
2026-04-20 11:46 52.99861 -2.56412 13293 ft 240 kts 139°
2026-04-20 11:46 52.98597 -2.54602 13293 ft 240 kts 139°
2026-04-20 11:46 52.97330 -2.52789 13298 ft 240 kts 139°
2026-04-20 11:46 52.96063 -2.50977 13298 ft 240 kts 139°
2026-04-20 11:47 52.94795 -2.49166 13298 ft 240 kts 139°
2026-04-20 11:47 52.93530 -2.47362 13298 ft 240 kts 139°
2026-04-20 11:47 52.92265 -2.45557 13298 ft 240 kts 139°
2026-04-20 11:47 52.90999 -2.43752 13298 ft 240 kts 139°
2026-04-20 11:48 52.89747 -2.41970 13302 ft 240 kts 139°
2026-04-20 11:48 52.88480 -2.40168 13302 ft 240 kts 139°
2026-04-20 11:48 52.87217 -2.38371 13302 ft 240 kts 139°
2026-04-20 11:48 52.85951 -2.36573 13302 ft 240 kts 139°
2026-04-20 11:49 52.84686 -2.34778 13302 ft 239 kts 140°
2026-04-20 11:49 52.83422 -2.32986 13303 ft 239 kts 140°
2026-04-20 11:49 52.82155 -2.31189 13303 ft 239 kts 139°
2026-04-20 11:49 52.81016 -2.29191 13301 ft 239 kts 130°
2026-04-20 11:50 52.79942 -2.27091 13302 ft 239 kts 130°
2026-04-20 11:50 52.78863 -2.25032 13303 ft 239 kts 131°
2026-04-20 11:50 52.77770 -2.22954 13303 ft 239 kts 130°
2026-04-20 11:50 52.76681 -2.20876 13308 ft 239 kts 130°
2026-04-20 11:51 52.75589 -2.18793 13309 ft 239 kts 130°
2026-04-20 11:51 52.74494 -2.16706 13303 ft 239 kts 130°
2026-04-20 11:51 52.73403 -2.14632 13317 ft 240 kts 130°
2026-04-20 11:51 52.72309 -2.12549 13317 ft 240 kts 130°
2026-04-20 11:52 52.71214 -2.10467 13317 ft 240 kts 130°
2026-04-20 11:52 52.70138 -2.08423 13106 ft 235 kts 130°
2026-04-20 11:52 52.69078 -2.06413 12665 ft 229 kts 130°
2026-04-20 11:52 52.68043 -2.04449 12231 ft 225 kts 130°
2026-04-20 11:53 52.67018 -2.02507 11804 ft 222 kts 130°
2026-04-20 11:53 52.66014 -2.00608 11395 ft 218 kts 130°
2026-04-20 11:53 52.65027 -1.98740 10984 ft 214 kts 130°
2026-04-20 11:53 52.64044 -1.96884 10496 ft 215 kts 131°
2026-04-20 11:54 52.62868 -1.95365 9991 ft 215 kts 148°
2026-04-20 11:54 52.61622 -1.94094 9470 ft 209 kts 144°
2026-04-20 11:54 52.60495 -1.92761 8831 ft 193 kts 142°
2026-04-20 11:54 52.59492 -1.91373 8161 ft 183 kts 122°
2026-04-20 11:55 52.59207 -1.89443 7517 ft 172 kts 78°
2026-04-20 11:55 52.59826 -1.87853 6909 ft 168 kts 36°
2026-04-20 11:55 52.60841 -1.86909 6294 ft 167 kts 30°
2026-04-20 11:55 52.61861 -1.86025 5673 ft 164 kts 33°
2026-04-20 11:56 52.62556 -1.84632 5082 ft 162 kts 79°
2026-04-20 11:56 52.62292 -1.82825 4721 ft 176 kts 127°
2026-04-20 11:56 52.61208 -1.81863 4389 ft 187 kts 172°
2026-04-20 11:56 52.59951 -1.82400 4053 ft 193 kts 214°
2026-04-20 11:57 52.59022 -1.83977 3677 ft 189 kts 229°
2026-04-20 11:57 52.58203 -1.85631 3259 ft 185 kts 229°
2026-04-20 11:57 52.57361 -1.87200 2839 ft 181 kts 213°
2026-04-20 11:57 52.56204 -1.87675 2496 ft 168 kts 164°
2026-04-20 11:58 52.55199 -1.86917 2482 ft 157 kts 148°
2026-04-20 11:58 52.54252 -1.86012 2488 ft 153 kts 142°
2026-04-20 11:58 52.53459 -1.84927 2235 ft 149 kts 133°
2026-04-20 11:58 52.52712 -1.83757 1849 ft 151 kts 135°
2026-04-20 11:59 52.51948 -1.82712 1653 ft 138 kts 139°
2026-04-20 11:59 52.51198 -1.81797 1554 ft 130 kts 140°
2026-04-20 11:59 52.50531 -1.80965 1477 ft 110 kts 138°
2026-04-20 11:59 52.49921 -1.80190 1396 ft 111 kts 138°
2026-04-20 12:00 52.49309 -1.79400 1338 ft 113 kts 139°
2026-04-20 12:00 52.48668 -1.78605 1148 ft 118 kts 140°
2026-04-20 12:00 52.48025 -1.77836 927 ft 115 kts 140°
2026-04-20 12:00 52.47381 -1.77064 683 ft 115 kts 142°
2026-04-20 12:01 52.46721 -1.76323 463 ft 115 kts 141°
2026-04-20 12:01 52.46071 -1.75570 312 ft 108 kts 140°
2026-04-20 12:01 52.45595 -1.75021 319 ft 51 kts 146°
2026-04-20 12:01 52.45448 -1.74869 318 ft 19 kts 145°
2026-04-20 12:02 52.45340 -1.74920 318 ft 16 kts 239°
2026-04-20 12:02 52.45294 -1.75041 320 ft 16 kts 238°
2026-04-20 12:02 52.45250 -1.75152 322 ft 8 kts 236°
2026-04-20 12:02 52.45226 -1.75212 322 ft 6 kts 237°
2026-04-20 12:03 52.45207 -1.75261 323 ft 5 kts 237°
2026-04-20 12:03 52.45178 -1.75319 323 ft 10 kts 210°
2026-04-20 12:03 52.45135 -1.75271 323 ft 5 kts 154°
2026-04-20 12:03 52.45124 -1.75282 323 ft 0 kts 237°